カタログに戻る

USA 122

運用中軍事HEO
NORAD 23862·PAYLOAD·🇺🇸 United States

打ち上げ May 12, 1996 から Vandenberg Space Force Base

Loading…

次のパス (今後24時間)

TLE

古いSource: Mike McCants

元期: Oct 24, 2022, 15:46 UTC

1 23862U 96029D   22297.65721194 0.00000000  00000-0  00000-0 0    07
2 23862  63.3113 163.3626 3398152 268.6168  91.3832  5.52856044    00

AllMySatでUSA 122をリアルタイム追跡

Download on the App Store